Hourly Weather Bolshoe Chervonnoe

Today, 31 July, Saturday

Time Temperature Precipitation Wind Pressure Humidity
00:00 +17°C° 0 mm 3 mps 735 mmHg 79%
01:00 +16°C° 0 mm 3 mps 735 mmHg 80%
02:00 +16°C° 0 mm 3 mps 735 mmHg 81%
03:00 +16°C° 0 mm 3 mps 735 mmHg 82%
04:00 +16°C° 0 mm 3 mps 735 mmHg 83%
05:00 +16°C° 0 mm 3 mps 735 mmHg 84%
06:00 +18°C° 0 mm 3 mps 736 mmHg 74%
07:00 +20°C° 0 mm 4 mps 736 mmHg 64%
08:00 +22°C° 0 mm 5 mps 736 mmHg 54%
09:00 +23°C° 0 mm 5 mps 736 mmHg 50%
10:00 +24°C° 0 mm 6 mps 736 mmHg 46%
11:00 +26°C° 0 mm 7 mps 736 mmHg 42%
12:00 +26°C° 0 mm 7 mps 737 mmHg 41%
13:00 +27°C° 0 mm 7 mps 737 mmHg 40%
14:00 +27°C° 0 mm 7 mps 737 mmHg 39%
15:00 +27°C° 0 mm 6 mps 737 mmHg 42%
16:00 +27°C° 0 mm 5 mps 737 mmHg 44%
17:00 +26°C° 0 mm 5 mps 737 mmHg 47%
18:00 +25°C° 0 mm 4 mps 737 mmHg 53%
19:00 +22°C° 0 mm 3 mps 737 mmHg 60%
20:00 +20°C° 0 mm 2 mps 737 mmHg 66%
21:00 +19°C° 0 mm 2 mps 737 mmHg 68%
22:00 +19°C° 0 mm 2 mps 737 mmHg 69%
23:00 +18°C° 0 mm 2 mps 737 mmHg 71%

Tomorrow, 1 August, Sunday

Time Temperature Precipitation Wind Pressure Humidity
00:00 +18°C° 0 mm 2 mps 737 mmHg 73%
01:00 +18°C° 0 mm 2 mps 737 mmHg 74%
02:00 +18°C° 0 mm 3 mps 737 mmHg 76%
03:00 +18°C° 0.6 mm 3 mps 737 mmHg 82%
04:00 +17°C° 0.6 mm 3 mps 737 mmHg 88%
05:00 +17°C° 0.6 mm 3 mps 737 mmHg 93%
06:00 +18°C° 0.2 mm 3 mps 737 mmHg 93%
07:00 +18°C° 0.2 mm 3 mps 737 mmHg 93%
08:00 +19°C° 0.2 mm 2 mps 737 mmHg 92%
09:00 +20°C° 0.1 mm 3 mps 737 mmHg 88%
10:00 +21°C° 0.1 mm 4 mps 738 mmHg 84%
11:00 +22°C° 0.1 mm 5 mps 738 mmHg 81%
12:00 +23°C° 0 mm 5 mps 738 mmHg 72%
13:00 +26°C° 0 mm 5 mps 738 mmHg 63%
14:00 +27°C° 0 mm 5 mps 738 mmHg 54%
15:00 +27°C° 0 mm 4 mps 738 mmHg 54%
16:00 +27°C° 0 mm 4 mps 738 mmHg 54%
17:00 +27°C° 0 mm 3 mps 738 mmHg 55%
18:00 +25°C° 0 mm 3 mps 738 mmHg 61%
19:00 +23°C° 0 mm 2 mps 737 mmHg 66%
20:00 +20°C° 0 mm 2 mps 737 mmHg 72%
21:00 +20°C° 0 mm 1 mps 738 mmHg 72%
22:00 +20°C° 0 mm 1 mps 738 mmHg 72%
23:00 +17°C° 0 mm 0 mps 738 mmHg 72%

Day after tomorrow, 2 August, Monday

Time Temperature Precipitation Wind Pressure Humidity
00:00 +19°C° 0 mm 1 mps 737 mmHg 73%
01:00 +19°C° 0 mm 1 mps 737 mmHg 73%
02:00 +18°C° 0 mm 2 mps 737 mmHg 74%
03:00 +18°C° 0.3 mm 2 mps 737 mmHg 81%
04:00 +18°C° 0.3 mm 2 mps 736 mmHg 87%
05:00 +17°C° 0.3 mm 3 mps 736 mmHg 94%
06:00 +19°C° 0.6 mm 3 mps 736 mmHg 91%
07:00 +20°C° 0.6 mm 3 mps 735 mmHg 89%
08:00 +21°C° 0.6 mm 3 mps 735 mmHg 87%
09:00 +22°C° 0.1 mm 4 mps 735 mmHg 82%
10:00 +23°C° 0.1 mm 5 mps 735 mmHg 77%
11:00 +25°C° 0.1 mm 5 mps 734 mmHg 73%
12:00 +26°C° 0.6 mm 6 mps 734 mmHg 71%
13:00 +27°C° 0.6 mm 6 mps 734 mmHg 69%
14:00 +28°C° 0.6 mm 6 mps 733 mmHg 67%
15:00 +27°C° 0.5 mm 6 mps 733 mmHg 69%
16:00 +27°C° 0.5 mm 6 mps 732 mmHg 71%
17:00 +26°C° 0.5 mm 5 mps 732 mmHg 72%
18:00 +23°C° 0.9 mm 4 mps 732 mmHg 80%
19:00 +20°C° 0.9 mm 4 mps 733 mmHg 88%
20:00 +18°C° 0.9 mm 3 mps 733 mmHg 95%
21:00 +18°C° 0.2 mm 3 mps 733 mmHg 96%
22:00 +17°C° 0.2 mm 3 mps 733 mmHg 96%
23:00 +17°C° 0.2 mm 4 mps 733 mmHg 96%

3 August, Tuesday

Time Temperature Precipitation Wind Pressure Humidity
00:00 +15°C° 0.1 mm 4 mps 734 mmHg 96%
01:00 +15°C° 0.1 mm 4 mps 734 mmHg 96%
02:00 +15°C° 0.1 mm 5 mps 734 mmHg 96%
03:00 +14°C° 0.1 mm 4 mps 735 mmHg 96%
04:00 +14°C° 0.1 mm 4 mps 735 mmHg 96%
05:00 +14°C° 0.1 mm 4 mps 736 mmHg 96%
06:00 +14°C° 0.1 mm 4 mps 736 mmHg 94%
07:00 +15°C° 0.1 mm 4 mps 736 mmHg 92%
08:00 +15°C° 0.1 mm 5 mps 737 mmHg 89%
09:00 +17°C° 0 mm 5 mps 737 mmHg 78%
10:00 +19°C° 0 mm 5 mps 738 mmHg 66%
11:00 +21°C° 0 mm 6 mps 738 mmHg 55%
12:00 +21°C° 0 mm 6 mps 738 mmHg 51%
13:00 +22°C° 0 mm 6 mps 738 mmHg 46%
14:00 +23°C° 0 mm 6 mps 738 mmHg 42%
15:00 +22°C° 0 mm 5 mps 738 mmHg 45%
16:00 +22°C° 0 mm 5 mps 738 mmHg 47%
17:00 +22°C° 0 mm 4 mps 739 mmHg 50%
18:00 +20°C° 0 mm 3 mps 739 mmHg 57%
19:00 +18°C° 0 mm 2 mps 739 mmHg 65%
20:00 +16°C° 0 mm 1 mps 739 mmHg 72%
21:00 +16°C° 0 mm 2 mps 740 mmHg 76%
22:00 +15°C° 0 mm 2 mps 740 mmHg 81%
23:00 +14°C° 0 mm 2 mps 740 mmHg 85%

4 August, Wednesday

Time Temperature Precipitation Wind Pressure Humidity
00:00 +14°C° 0 mm 2 mps 741 mmHg 88%
01:00 +13°C° 0 mm 2 mps 741 mmHg 91%
02:00 +13°C° 0 mm 2 mps 741 mmHg 94%
03:00 +13°C° 0 mm 2 mps 741 mmHg 94%
04:00 +13°C° 0 mm 2 mps 741 mmHg 95%
05:00 +13°C° 0 mm 2 mps 742 mmHg 95%
06:00 +15°C° 0 mm 2 mps 742 mmHg 86%
07:00 +16°C° 0 mm 2 mps 742 mmHg 77%
08:00 +18°C° 0 mm 2 mps 743 mmHg 68%
09:00 +20°C° 0 mm 2 mps 743 mmHg 61%
10:00 +21°C° 0 mm 2 mps 743 mmHg 55%
11:00 +23°C° 0 mm 2 mps 743 mmHg 48%
12:00 +24°C° 0 mm 2 mps 743 mmHg 46%
13:00 +24°C° 0 mm 2 mps 743 mmHg 43%
14:00 +25°C° 0 mm 2 mps 743 mmHg 41%
15:00 +24°C° 0 mm 2 mps 743 mmHg 43%
16:00 +24°C° 0 mm 2 mps 743 mmHg 46%
17:00 +23°C° 0 mm 2 mps 743 mmHg 48%
18:00 +21°C° 0 mm 2 mps 743 mmHg 53%
19:00 +19°C° 0 mm 2 mps 743 mmHg 58%
20:00 +18°C° 0 mm 2 mps 743 mmHg 64%
21:00 +17°C° 0 mm 2 mps 743 mmHg 67%
22:00 +17°C° 0 mm 2 mps 743 mmHg 70%
23:00 +16°C° 0 mm 2 mps 743 mmHg 74%

5 August, Thursday

Time Temperature Precipitation Wind Pressure Humidity
00:00 +15°C° 0 mm 2 mps 743 mmHg 75%
01:00 +15°C° 0 mm 2 mps 743 mmHg 77%
02:00 +15°C° 0 mm 2 mps 743 mmHg 78%
03:00 +15°C° 0 mm 2 mps 743 mmHg 77%
04:00 +14°C° 0 mm 3 mps 743 mmHg 76%
05:00 +14°C° 0 mm 3 mps 742 mmHg 75%
06:00 +17°C° 0 mm 3 mps 742 mmHg 70%
07:00 +19°C° 0 mm 4 mps 742 mmHg 64%
08:00 +20°C° 0 mm 5 mps 742 mmHg 58%
09:00 +21°C° 0 mm 5 mps 742 mmHg 56%
10:00 +22°C° 0 mm 5 mps 742 mmHg 54%
11:00 +22°C° 0 mm 5 mps 742 mmHg 52%
12:00 +21°C° 0.5 mm 5 mps 742 mmHg 65%
13:00 +19°C° 0.5 mm 5 mps 741 mmHg 78%
14:00 +17°C° 0.5 mm 4 mps 741 mmHg 91%
15:00 +17°C° 1.9 mm 4 mps 741 mmHg 92%
16:00 +15°C° 1.9 mm 5 mps 741 mmHg 94%
17:00 +15°C° 1.9 mm 5 mps 740 mmHg 96%
18:00 +15°C° 0.2 mm 5 mps 740 mmHg 96%
19:00 +15°C° 0.2 mm 5 mps 740 mmHg 96%
20:00 +15°C° 0.2 mm 4 mps 740 mmHg 96%
21:00 +15°C° 0.1 mm 4 mps 739 mmHg 96%
22:00 +15°C° 0.1 mm 4 mps 739 mmHg 97%
23:00 +16°C° 0.1 mm 3 mps 739 mmHg 97%
Show more

We Need Your Consent

Meteoprog and our Service Providers may store and access personal data such as cookies, device identifiers or other similar technologies on your device and process such data to personalise content and ads, as well as provide social media features and to analyse the traffic.

  • Store and/or access information on your device

    Cookies, device identifiers or other information can be stored or accessed on your device for the purposes indicated above.

  • Personalised ads and content, ad and content measurement, audience insights, and products development

    Ads and content can be personalised based on a profile. More data can be added to better personalise ads and content. Ad and content performance can be measured. Insights about the audience who saw the ads and content can be derived. Such data can be used to develop or improve user’s experience, systems and software.

By clicking ‘I Agree’ you will allow the use of indicated cookies, device identifiers, web beacons or other similar technologies. Your settings can be changed in the browser on your device.

For certain purposes, legitimate interests may be relied on, rather than consent. You can read more about this in our Privacy and Cookie Policy.